Date,TemperatureHighF,TemperatureAvgF,TemperatureLowF,DewpointHighF,DewpointAvgF,DewpointLowF,HumidityHigh,HumidityAvg,HumidityLow,PressureMaxIn,PressureMinIn,WindSpeedMaxMPH,WindSpeedAvgMPH,GustSpeedMaxMPH,PrecipitationSumIn
2013-1-1,16.7,8.9,1.4,0.9,-4.9,-7.6,65,53,40,30.39,29.99,15,6,15,0.00
2013-1-2,24.1,16.2,5.9,16.5,4.6,-5.3,77,60,46,30.01,29.91,15,7,15,0.00
2013-1-3,25.7,18.9,9.3,21.0,10.6,-0.4,83,70,61,30.15,29.94,21,8,23,0.00
2013-1-4,32.7,21.9,9.1,17.8,11.5,-0.2,75,64,53,30.10,30.00,27,12,27,0.00
2013-1-5,37.2,28.6,17.2,30.4,22.6,12.4,86,78,60,30.05,29.79,24,10,24,0.00
2013-1-6,28.0,20.4,14.7,20.3,10.9,6.1,73,66,57,30.18,29.81,22,8,22,0.00
2013-1-7,38.7,27.7,14.0,24.1,17.4,6.3,76,65,50,30.12,29.92,34,11,34,0.00
2013-1-8,39.7,33.7,27.0,30.6,25.7,20.5,83,72,62,29.96,29.84,27,10,27,0.00
2013-1-9,41.2,35.1,29.5,29.5,24.8,20.8,78,66,51,30.34,29.86,35,10,35,0.00
2013-1-10,40.1,34.7,28.2,35.6,25.8,19.2,94,71,52,30.34,29.68,31,13,31,0.13
2013-1-11,50.7,42.8,37.0,47.3,41.9,35.4,99,97,80,29.69,29.49,26,12,26,0.17
2013-1-12,50.5,31.2,19.2,44.6,22.6,10.9,85,70,57,29.91,29.50,33,13,33,0.04
2013-1-13,19.8,14.1,9.1,10.9,1.9,-3.3,68,58,47,30.08,29.78,22,10,23,0.00
2013-1-14,27.1,15.9,6.1,5.7,1.8,-2.7,67,54,35,30.57,30.07,15,5,16,0.00
2013-1-15,31.1,20.9,13.1,12.0,7.3,2.8,67,56,41,30.24,29.93,18,6,18,0.00
2013-1-16,36.1,27.3,14.5,31.5,16.8,2.5,88,65,49,29.97,29.69,29,12,29,0.00
2013-1-17,31.8,23.9,17.6,23.2,9.1,-0.2,73,54,35,30.27,29.97,23,9,23,0.00
2013-1-18,45.9,34.5,20.1,31.5,23.4,11.1,75,64,53,30.24,29.75,33,13,33,0.00
2013-1-19,48.9,37.4,14.5,32.5,25.3,-2.6,75,62,41,29.93,29.61,42,15,42,1.13
2013-1-20,15.3,10.5,5.9,-2.6,-6.1,-8.7,55,47,34,30.19,29.92,42,11,42,1.28
2013-1-21,9.7,3.3,-2.0,-3.8,-15.6,-21.6,56,41,28,30.42,29.99,26,13,29,0.00
2013-1-22,10.0,3.0,-5.3,-9.4,-15.1,-20.0,52,42,31,30.51,30.13,20,7,21,0.00
2013-1-23,23.7,13.2,5.2,9.3,-0.6,-11.7,70,54,42,30.26,29.96,29,10,30,0.01
2013-1-24,18.5,8.8,-0.8,2.1,-8.5,-17.5,51,44,39,30.76,30.11,20,8,20,0.01
2013-1-25,31.3,20.7,12.6,12.9,5.6,-0.2,69,52,41,30.11,29.83,30,13,30,0.00
2013-1-26,26.8,18.1,7.2,9.5,1.5,-4.4,60,48,31,30.49,30.06,19,8,19,0.00
2013-1-27,35.2,28.7,23.5,34.9,20.9,9.1,96,73,52,30.14,29.68,25,9,25,0.02
2013-1-28,45.3,39.3,35.1,43.5,37.6,34.2,99,94,77,29.83,29.58,24,10,24,0.41
2013-1-29,57.0,45.8,33.4,55.9,45.0,32.7,99,97,86,29.59,29.36,28,10,28,1.06
2013-1-30,33.6,25.8,14.2,32.7,22.4,4.6,97,87,65,29.55,29.21,19,2,21,0.41
2013-1-31,14.2,6.2,-3.8,7.7,-4.6,-15.9,76,61,45,30.36,29.55,29,7,29,0.00
2013-2-1,7.9,0.1,-9.0,0.5,-13.3,-21.8,71,53,39,30.49,29.91,21,8,21,0.00
2013-2-2,17.6,12.2,8.1,12.0,2.5,-2.2,79,65,47,30.02,29.81,20,6,20,0.00
2013-2-3,23.4,16.1,9.5,11.3,6.0,1.4,78,64,46,29.96,29.77,23,7,23,0.00
2013-2-4,22.8,17.8,11.7,16.2,8.9,3.0,85,68,52,29.89,29.69,19,8,19,0.00
2013-2-5,30.7,22.1,10.4,23.7,14.6,1.9,82,73,63,29.96,29.63,23,9,23,0.00
2013-2-6,36.3,28.1,16.9,29.5,19.9,10.4,79,71,57,30.06,29.89,22,9,22,0.00
2013-2-7,35.8,33.0,26.6,33.1,30.0,23.2,95,89,75,29.97,29.79,17,6,21,0.26
2013-2-8,31.1,24.3,17.1,23.4,16.5,10.6,88,72,55,30.29,29.97,0,0,0,0.00
2013-2-9,30.6,25.1,17.1,24.8,19.8,10.9,87,80,71,30.21,29.88,30,8,30,0.01
2013-2-10,44.2,36.4,27.1,43.7,33.9,23.2,99,91,70,29.88,29.26,41,17,41,0.63
2013-2-11,35.1,28.3,22.3,29.1,19.8,12.9,85,70,62,29.91,29.34,45,20,46,1.22
2013-2-12,35.8,26.8,20.8,22.5,17.4,13.1,78,68,52,29.96,29.72,19,8,19,0.00
2013-2-13,41.2,33.5,26.1,28.9,25.2,19.8,82,72,59,29.72,29.54,14,5,15,0.00
2013-2-14,38.7,34.3,27.7,29.5,24.8,16.7,79,68,50,29.89,29.48,30,13,30,0.04
2013-2-15,29.1,21.0,12.9,16.5,4.2,-1.3,63,48,32,30.12,29.89,25,12,25,0.00
2013-2-16,21.0,14.4,8.6,3.2,-0.3,-3.3,65,52,41,30.08,29.99,19,7,21,0.00
2013-2-17,31.8,21.7,9.5,19.2,7.4,-5.6,66,54,45,30.03,29.72,27,12,27,0.00
2013-2-18,51.4,33.3,15.4,37.2,24.8,6.6,95,71,54,29.72,29.41,33,16,34,0.04
2013-2-19,15.6,9.4,3.2,6.6,-2.6,-9.4,72,58,47,30.38,29.54,30,16,30,0.04
2013-2-25,41.5,36.1,32.4,26.6,24.2,21.6,68,62,53,30.03,29.82,16,8,16,0.00
2013-2-26,34.7,31.3,28.0,28.0,24.3,21.2,94,76,59,29.83,29.50,31,16,31,0.01
2013-2-27,32.5,29.9,27.5,29.5,27.1,23.5,94,89,84,29.69,29.51,21,12,21,0.00
2013-2-28,35.6,31.4,28.0,28.9,24.4,19.8,92,75,63,29.99,29.69,22,10,22,0.01
2013-3-1,28.4,24.4,19.4,19.6,13.6,8.4,71,63,55,30.13,29.98,21,8,21,0.00
2013-3-2,29.7,21.0,13.3,8.4,4.7,1.0,66,50,31,30.17,29.99,18,6,18,0.00
2013-3-3,37.4,25.2,14.2,7.2,2.6,-1.5,56,39,24,30.05,29.92,12,5,12,0.00
2013-3-4,32.0,25.6,20.7,21.7,13.7,4.8,75,61,48,29.94,29.82,27,13,28,0.00
2013-3-5,28.6,27.0,26.1,25.7,22.1,18.9,89,82,72,29.84,29.75,17,9,20,0.00
2013-3-6,31.3,27.1,22.1,20.1,17.2,14.5,72,66,62,30.23,30.18,17,6,17,0.00
2013-3-7,36.1,26.3,15.8,21.7,16.2,9.5,83,66,49,30.32,30.19,15,5,15,0.00
2013-3-8,39.6,30.0,20.5,25.5,20.9,15.1,80,69,54,30.31,30.09,22,12,22,0.00
2013-3-9,40.3,36.0,32.2,38.8,31.5,24.3,98,84,71,30.09,29.64,28,14,30,0.34
2013-3-10,42.1,39.0,34.3,41.7,38.5,33.1,99,98,94,29.65,29.44,24,8,24,0.85
2013-3-11,34.2,31.7,28.6,33.1,29.2,23.0,97,91,80,29.70,29.46,11,2,11,0.06
2013-3-12,34.0,27.0,22.5,26.1,18.4,13.1,85,70,55,29.94,29.70,26,7,26,0.00
2013-3-13,34.0,25.5,19.0,14.0,9.3,2.7,72,52,28,30.27,29.93,23,11,23,0.00
2013-3-14,39.0,27.6,20.8,29.8,19.7,10.9,87,72,55,30.19,29.93,18,7,18,0.00
2013-3-15,37.6,32.9,28.8,33.3,29.1,25.5,93,86,78,29.93,29.62,20,6,20,0.05
2013-3-16,34.2,29.5,25.9,30.4,22.4,14.4,94,75,60,30.03,29.62,17,8,17,0.01
2013-3-17,32.4,26.4,19.6,19.8,14.5,6.4,72,61,48,30.10,29.81,23,12,23,0.00
2013-3-18,33.6,25.9,16.2,29.5,19.2,4.5,89,76,58,29.81,29.52,33,14,33,0.05
2013-3-19,29.3,19.9,10.8,9.0,4.1,-0.2,65,51,32,30.02,29.66,29,16,29,0.02
2013-3-20,23.0,14.7,7.3,3.2,-2.2,-8.7,58,47,38,30.04,29.92,30,15,33,0.00
2013-3-21,30.0,18.8,7.3,7.3,1.6,-4.2,62,48,33,30.21,29.88,15,6,15,0.00
2013-3-22,36.7,26.3,15.3,13.5,8.6,3.2,63,47,33,29.98,29.88,11,4,11,0.00
2013-3-23,40.3,32.7,23.9,19.6,14.9,9.1,67,48,35,30.04,29.90,14,5,14,0.00
2013-3-24,33.3,29.4,26.8,26.2,23.0,17.4,89,77,58,29.92,29.67,23,10,23,0.00
2013-3-25,36.0,30.5,26.1,22.8,18.7,13.5,81,61,53,30.00,29.70,26,11,26,0.00
2013-3-26,41.2,32.9,25.5,22.6,18.5,16.0,67,55,44,30.17,29.99,17,7,17,0.00
2013-3-27,44.1,36.1,29.1,24.8,19.2,12.0,74,52,31,30.25,30.15,13,4,13,0.00
2013-3-28,49.5,39.2,28.4,25.5,19.9,15.6,65,46,32,30.29,30.17,11,4,13,0.00
2013-3-29,55.8,45.1,37.4,28.4,23.5,17.8,50,43,31,30.24,30.10,12,5,12,0.00
2013-3-30,54.3,44.7,35.6,42.6,32.4,20.5,94,63,47,30.11,29.74,30,11,30,0.00
2013-3-31,48.7,40.1,31.5,42.3,31.3,19.8,96,72,49,29.84,29.68,34,11,34,0.02
2013-4-1,36.9,30.4,25.0,20.3,12.5,7.9,63,48,33,30.11,29.83,27,12,27,0.00
2013-4-2,41.9,31.6,23.2,17.4,12.0,3.7,69,46,24,30.22,30.07,21,8,22,0.00
2013-4-3,46.2,35.5,23.5,14.7,11.2,7.9,56,38,23,30.35,30.14,15,6,15,0.00
2013-4-4,60.4,44.4,30.2,36.1,23.6,10.6,63,45,30,30.14,29.90,23,10,23,0.00
2013-4-5,52.2,42.7,33.8,29.5,22.0,16.0,63,45,25,30.15,29.95,27,9,27,0.00
2013-4-6,67.5,48.7,35.4,49.3,31.7,12.7,87,54,33,29.96,29.48,34,17,34,0.07
2013-4-7,61.7,48.7,38.1,42.6,36.3,33.1,85,65,38,29.88,29.58,30,8,30,0.06
2013-4-8,69.8,52.9,41.7,52.3,44.9,34.5,98,76,53,29.85,29.50,23,9,23,0.71
2013-4-9,50.0,43.1,38.3,45.9,41.7,37.0,98,95,84,29.86,29.71,34,14,34,1.91
2013-4-10,38.7,36.5,32.9,37.2,34.4,30.6,96,92,87,29.99,29.56,40,15,40,0.91
2013-4-11,42.8,38.9,36.1,41.5,37.3,33.3,97,94,89,29.67,29.45,39,13,39,0.66
2013-4-12,40.5,35.8,33.6,38.1,30.6,25.2,95,82,66,29.75,29.44,23,10,23,0.28
2013-4-13,42.8,36.3,30.9,27.9,25.2,22.1,75,64,53,29.87,29.72,24,9,24,0.00
2013-4-14,70.9,49.8,33.4,53.4,37.1,24.6,93,63,38,29.87,29.45,36,16,36,0.22
2013-4-15,58.5,48.0,39.4,51.3,40.7,31.8,97,78,37,29.91,29.54,31,9,31,0.30
2013-4-16,54.7,43.9,33.3,36.3,30.1,25.9,85,60,34,30.17,29.89,20,9,20,0.02
2013-4-17,46.8,41.6,38.7,43.9,37.4,30.7,98,86,59,30.19,29.70,39,14,39,1.31
2013-4-18,59.7,47.6,34.9,59.4,46.1,29.3,99,94,79,29.76,29.26,38,14,38,1.76
2013-4-19,37.6,34.3,31.6,29.8,26.5,22.8,85,73,59,29.85,29.36,35,17,40,0.04
2013-4-20,46.9,37.3,28.2,27.9,21.1,13.5,86,56,27,30.26,29.84,16,5,16,0.00
2013-4-21,55.4,44.4,35.2,38.5,29.9,19.2,67,57,46,30.34,30.14,32,16,32,0.00
2013-4-22,66.4,55.3,45.1,44.4,36.4,33.3,71,51,30,30.16,23.33,27,13,28,0.01
2013-4-23,53.8,41.6,36.0,46.2,34.7,26.2,89,77,64,29.94,29.83,27,11,27,0.17
2013-4-24,52.5,42.6,32.0,33.8,23.7,17.2,71,49,27,30.01,29.89,25,10,25,0.00
2013-4-25,52.5,43.3,33.8,37.4,25.5,14.0,88,54,24,30.20,29.93,25,10,27,0.04
2013-4-26,69.1,54.7,41.2,45.5,36.4,17.1,72,51,34,30.17,30.08,35,14,35,0.04
2013-4-27,64.8,56.6,46.4,47.1,43.7,41.2,90,64,46,30.17,29.90,19,6,19,0.00
2013-4-28,71.8,60.9,48.4,48.2,44.5,40.3,78,56,36,29.91,29.71,13,5,14,0.00
2013-4-29,76.8,63.7,53.2,58.8,52.0,45.1,85,67,45,29.79,29.59,31,11,31,0.02
2013-4-30,87.3,74.2,61.5,58.8,52.8,45.5,85,52,24,29.82,29.59,36,14,36,0.04
2013-5-1,81.5,68.6,50.4,58.5,53.5,43.3,83,60,36,30.13,29.81,30,8,30,0.00
2013-5-2,50.2,43.0,36.0,43.7,39.2,35.1,99,87,72,30.22,30.09,33,14,33,0.09
2013-5-3,48.2,40.1,33.8,48.0,39.7,33.3,99,98,97,30.12,29.83,24,10,24,1.48
2013-5-4,70.5,59.0,48.4,59.5,53.3,48.2,99,83,56,29.97,29.83,27,11,27,0.09
2013-5-5,74.1,63.8,54.5,56.7,50.6,44.6,99,66,41,29.98,29.90,16,6,16,0.00
2013-5-6,75.0,66.3,54.7,50.2,45.1,41.0,73,48,33,30.00,29.91,55,5,55,0.00
2013-5-7,79.3,69.1,59.5,49.6,43.0,38.1,63,41,24,29.98,29.89,12,4,12,0.00
2013-5-8,79.5,72.2,61.5,56.7,49.0,42.3,76,46,29,29.96,29.88,14,5,60,0.00
2013-5-9,67.8,61.6,51.8,63.9,58.3,51.3,99,89,73,29.90,29.73,23,5,23,0.20
2013-5-10,56.1,49.3,43.5,51.3,47.5,43.0,99,93,81,29.92,29.76,25,8,25,0.44
2013-5-11,55.0,49.4,41.4,51.3,35.2,21.4,99,63,30,30.01,29.77,39,15,39,8.36
2013-5-12,55.8,47.2,36.1,28.0,25.7,20.1,66,45,28,30.08,29.99,23,9,23,0.00
2013-5-13,67.8,56.0,41.9,41.5,31.2,22.6,63,41,22,30.10,29.82,17,6,19,0.01
2013-5-14,91.4,73.9,55.6,62.4,53.1,41.2,71,50,25,29.82,29.49,22,10,22,0.00
2013-5-15,80.6,72.5,64.2,59.9,47.8,39.2,59,43,24,29.81,29.56,20,8,20,0.00
2013-5-16,83.3,72.6,58.5,55.0,46.6,39.6,74,42,23,29.87,29.76,14,5,15,0.00
2013-5-17,77.0,66.0,59.4,61.2,53.5,45.9,74,64,55,29.95,29.84,17,8,17,0.00
2013-5-18,81.9,69.5,56.3,66.9,58.9,50.9,85,70,49,29.95,29.81,16,7,16,0.00
2013-5-19,85.1,72.3,64.0,72.5,64.0,53.8,99,77,42,29.86,29.54,34,12,34,0.45
2013-5-20,80.8,76.3,68.7,65.8,62.7,60.1,74,63,52,29.66,29.55,26,12,26,1.04
2013-5-21,75.0,67.8,61.5,64.2,59.4,54.5,98,76,54,29.62,29.55,25,10,25,0.00
2013-5-22,70.3,62.2,57.4,60.1,57.2,9.1,99,85,57,29.70,29.55,18,6,18,0.26
2013-5-23,65.7,56.7,50.9,57.0,48.4,37.8,99,76,42,30.20,29.70,21,8,23,0.26
2013-5-24,66.9,54.9,38.1,41.4,38.2,33.4,94,57,32,30.39,30.20,13,5,13,0.00
2013-5-25,56.7,49.9,46.8,48.4,44.8,40.1,99,83,56,30.29,30.17,16,7,16,0.22
2013-5-26,55.9,51.3,45.0,55.6,47.0,38.3,99,86,64,30.20,29.99,28,9,28,0.09
2013-5-27,61.0,56.2,51.6,60.4,55.7,51.3,99,98,97,30.00,29.76,20,9,20,0.11
2013-5-28,75.0,64.2,54.9,72.3,63.4,54.0,99,97,91,29.77,29.59,15,5,15,0.69
2013-5-29,83.3,71.9,62.6,71.8,65.6,59.0,99,81,63,29.84,29.68,24,8,24,0.00
2013-5-30,80.8,71.2,61.5,70.5,66.7,61.0,99,86,64,29.78,29.61,35,14,35,0.39
2013-5-31,75.9,67.9,61.9,67.8,63.9,59.0,99,88,61,29.72,29.59,22,10,24,0.06
2013-6-1,77.4,68.7,61.9,68.0,62.3,16.2,99,82,47,29.70,29.57,25,8,25,0.00
2013-6-2,64.0,57.0,51.3,60.3,49.0,43.2,99,76,55,29.98,29.69,24,8,178,0.18
2013-6-3,71.8,60.5,48.7,52.5,47.9,45.1,98,66,42,30.05,29.94,13,4,13,0.00
2013-6-4,68.0,60.5,54.5,56.5,50.4,39.4,94,71,36,30.10,29.98,17,6,17,0.06
2013-6-5,67.8,58.9,52.7,61.0,55.6,49.8,99,89,76,30.02,29.87,17,6,17,0.35
2013-6-6,63.0,57.4,54.0,59.0,55.4,53.1,99,94,82,29.89,29.82,10,4,10,0.13
2013-6-7,71.8,61.9,54.3,55.9,53.5,51.1,99,76,54,29.93,29.85,13,4,13,0.00
2013-6-8,74.3,65.6,57.2,54.0,50.2,45.1,76,59,41,29.91,29.86,15,6,15,0.00
2013-6-9,74.7,65.5,59.9,65.7,57.9,46.9,98,78,58,29.89,29.72,29,9,29,0.18
2013-6-10,79.0,68.7,60.1,65.8,62.5,59.7,99,82,57,29.82,29.69,15,4,15,0.04
2013-6-11,83.3,73.9,63.1,69.3,64.7,59.0,90,74,55,29.86,29.73,15,4,15,0.00
2013-6-12,84.9,74.1,64.9,76.1,69.0,14.9,99,85,70,29.85,29.52,30,7,30,0.85
2013-6-13,80.2,70.4,59.5,64.6,59.2,54.3,99,70,43,29.98,29.67,17,7,17,0.19
2013-6-14,74.8,66.0,55.9,61.0,56.8,52.3,93,73,57,30.09,29.90,13,5,13,0.00
2013-6-15,83.7,71.4,62.1,71.8,65.6,58.6,98,82,61,29.97,29.75,27,8,27,0.08
2013-6-16,85.8,75.6,65.1,68.5,60.4,50.2,99,64,33,29.88,29.81,23,6,23,0.08
2013-6-17,87.3,78.3,67.3,62.2,56.2,46.6,76,47,35,29.88,29.75,18,6,18,0.00
2013-6-18,78.3,67.3,58.3,60.6,56.5,51.8,88,69,51,30.01,29.86,23,7,23,0.00
2013-6-19,82.2,69.2,54.7,60.6,53.6,45.0,79,59,42,30.08,29.96,11,5,11,0.00
2013-6-20,69.6,65.8,64.2,59.5,57.5,56.3,77,75,65,30.05,30.02,13,7,13,0.00
2013-6-21,74.5,72.3,70.2,69.1,67.8,66.7,94,86,80,29.97,29.85,21,8,21,0.00
2013-6-22,85.1,74.2,64.9,77.2,70.6,64.4,99,89,69,30.06,29.82,30,11,30,1.18
2013-6-23,84.7,74.8,65.3,73.6,68.8,64.4,98,82,56,29.99,29.75,19,8,20,0.00
2013-6-24,75.2,69.1,65.1,69.4,67.1,64.8,99,94,80,30.00,29.80,23,8,23,0.35
2013-6-25,81.9,72.9,64.8,77.7,70.9,64.4,99,94,82,29.89,29.71,23,6,23,1.78
2013-6-26,84.6,76.1,67.5,74.7,71.1,66.7,99,86,66,29.72,29.64,26,5,26,0.34
2013-6-27,87.4,78.0,68.7,73.6,67.3,59.5,99,72,44,29.78,29.66,28,8,28,0.00
2013-6-28,79.2,70.6,63.9,68.2,62.8,60.1,99,78,54,29.73,29.60,39,9,39,0.13
2013-6-29,74.7,65.9,62.2,67.5,63.5,59.9,99,92,70,29.78,29.59,21,8,22,0.67
2013-6-30,78.8,68.8,60.4,62.2,57.0,48.0,94,68,45,29.99,29.77,19,8,19,0.00
2013-7-1,79.0,69.8,60.1,58.1,53.4,49.5,76,57,42,30.06,29.98,20,7,23,0.00
2013-7-2,77.9,69.1,59.5,59.9,53.9,46.9,78,59,45,30.05,29.97,15,5,15,0.00
2013-7-3,75.0,65.3,55.0,63.3,57.1,50.5,89,75,61,30.03,29.96,11,3,11,0.00
2013-7-4,82.9,72.8,60.1,65.7,61.7,56.3,97,70,50,30.01,29.92,15,4,15,0.00
2013-7-5,83.7,75.0,64.6,67.6,64.9,61.9,95,72,54,30.00,29.90,17,7,17,0.00
2013-7-6,84.6,75.9,66.7,69.4,66.1,63.0,90,73,55,29.97,29.86,16,6,16,0.00
2013-7-7,88.3,78.3,68.7,73.8,70.2,67.3,96,77,56,29.92,29.83,14,6,15,0.00
2013-7-8,89.2,79.4,70.3,77.5,73.9,69.8,98,84,66,29.93,29.83,17,7,17,0.56
2013-7-9,84.7,78.2,72.3,78.6,75.1,71.4,99,91,79,29.93,29.78,23,7,23,0.20
2013-7-10,79.9,74.9,66.7,77.4,65.2,57.0,99,73,49,29.98,29.80,20,8,20,0.00
2013-7-11,82.0,72.8,63.3,65.3,59.6,55.8,85,64,47,30.06,29.98,11,3,11,0.00
2013-7-12,81.3,73.1,63.3,63.1,59.0,56.1,81,63,43,30.10,29.99,14,4,14,0.00
2013-7-13,82.8,72.5,62.8,66.9,62.2,56.8,85,71,53,30.09,30.01,12,5,12,0.00
2013-7-14,86.2,76.8,66.0,72.0,67.6,61.9,89,74,59,30.14,30.06,13,6,14,0.00
2013-7-15,89.8,80.8,72.1,76.3,72.9,68.5,91,78,59,30.20,30.10,11,5,11,0.00
2013-7-16,90.0,82.3,74.1,77.7,75.4,73.6,99,81,62,30.22,30.14,13,5,13,0.00
2013-7-17,92.7,84.7,77.0,77.5,74.7,71.8,90,73,55,30.24,30.09,12,4,60,0.00
2013-7-18,91.2,84.4,78.1,76.6,74.4,72.1,87,73,56,30.12,29.86,17,7,17,0.00
2013-7-19,89.1,82.2,74.5,76.1,71.6,66.6,81,71,60,29.86,29.68,27,11,27,0.04
2013-7-20,86.5,75.0,65.7,69.8,66.1,63.3,94,75,51,29.88,29.78,15,4,15,0.02
2013-7-21,82.8,71.8,64.0,73.9,67.3,63.1,99,87,68,29.89,29.77,21,7,21,0.00
2013-7-22,85.8,74.1,63.7,75.6,68.4,59.5,99,84,59,29.84,29.64,38,7,38,0.26
2013-7-23,76.5,69.1,62.2,64.4,59.5,54.1,98,73,51,29.94,29.69,21,7,21,0.26
2013-7-24,76.1,66.7,56.1,58.6,55.5,50.9,98,69,44,30.02,29.67,9,4,9,0.00
2013-7-25,81.3,69.6,58.8,66.4,61.4,54.1,97,76,56,30.03,29.93,19,6,19,0.18
2013-7-26,77.0,67.6,60.8,72.9,63.0,55.9,99,87,52,29.95,29.80,27,9,27,0.38
2013-7-27,64.2,57.5,53.1,57.0,50.7,46.4,97,79,60,29.93,29.86,22,8,22,0.00
2013-7-28,69.8,59.4,51.1,55.9,51.7,48.7,97,77,56,29.99,29.82,19,7,19,0.00
2013-7-29,77.7,65.9,54.0,59.9,56.2,52.3,98,73,48,30.09,29.98,11,4,11,0.00
2013-7-30,70.9,64.4,60.3,65.7,61.3,56.3,99,90,74,30.09,30.00,17,6,17,0.02
2013-7-31,80.1,69.6,63.1,69.1,64.8,62.2,99,86,64,30.01,29.90,15,4,15,0.04
2013-8-1,80.2,70.5,61.2,64.6,58.7,53.4,96,69,42,29.98,29.85,20,6,20,0.06
2013-8-2,82.6,72.8,66.2,69.4,63.2,57.4,90,73,53,29.92,29.79,12,6,12,0.06
2013-8-3,78.3,69.6,58.6,59.2,55.9,52.3,91,63,44,30.10,29.92,14,4,14,0.00
2013-8-4,79.9,68.9,57.7,58.8,54.8,49.8,84,63,36,30.16,30.03,9,3,9,0.00
2013-8-5,72.3,65.6,58.8,68.0,62.8,57.9,99,91,77,30.04,29.78,21,7,21,0.30
2013-8-6,83.8,73.6,67.5,74.3,70.9,67.1,99,92,70,29.83,29.73,15,5,15,0.00
2013-8-7,81.7,74.0,64.8,74.3,67.0,61.3,99,80,58,29.93,29.71,24,6,24,0.00
2013-8-8,80.6,70.4,61.2,66.7,61.9,57.9,95,76,48,29.99,29.90,15,4,15,0.00
2013-8-9,80.1,71.2,63.3,68.0,63.2,58.1,96,77,58,30.03,29.92,14,5,15,0.00
2013-8-10,78.4,68.5,57.6,61.2,57.3,54.5,97,70,46,30.11,30.02,18,5,18,0.00
2013-8-11,79.9,70.0,61.7,69.6,62.7,55.0,91,78,65,30.08,29.95,17,3,17,0.00
2013-8-12,81.7,72.5,65.8,70.0,65.3,59.5,99,79,54,29.97,29.84,16,6,16,0.00
2013-8-13,72.1,64.5,58.5,60.3,52.8,46.9,99,68,43,30.10,29.93,18,5,18,0.00
2013-8-14,75.6,64.8,53.2,58.1,52.6,48.4,92,66,41,30.17,30.06,11,2,11,0.00
2013-8-15,76.5,66.8,56.8,58.6,54.5,51.3,90,66,47,30.11,30.04,11,2,11,0.00
2013-8-16,81.9,69.4,59.2,61.9,56.0,52.0,91,65,39,30.13,30.06,11,3,11,0.00
2013-8-17,81.9,71.9,61.2,60.4,55.6,51.8,78,58,37,30.18,30.09,13,4,13,0.00
2013-8-18,81.3,71.6,61.5,62.8,57.8,54.7,84,64,41,30.15,30.02,12,3,12,0.00
2013-8-19,82.9,72.5,62.2,67.3,63.1,57.7,93,73,50,30.05,29.95,17,4,17,0.00
2013-8-20,86.0,75.5,65.5,69.3,66.3,64.6,98,75,51,30.02,29.91,18,6,18,0.00
2013-8-21,87.8,78.3,69.4,72.3,69.5,66.4,94,76,57,29.98,29.86,22,7,22,0.11
2013-8-22,76.3,71.2,66.2,73.0,69.0,65.8,99,93,80,30.10,29.92,26,5,30,0.72
2013-8-23,83.1,72.9,64.9,67.8,61.9,53.1,99,72,44,30.12,30.04,15,6,15,0.00
2013-8-24,84.6,73.3,62.2,70.9,63.3,51.3,88,72,57,30.18,30.06,15,8,15,0.00
2013-8-25,89.1,78.5,70.0,72.7,69.0,66.0,93,75,48,30.16,30.02,18,8,18,0.00
2013-8-26,90.3,79.6,70.2,76.8,71.4,65.8,88,77,62,30.08,29.89,16,7,16,0.00
2013-8-27,93.6,84.1,76.5,75.6,73.0,70.7,89,71,53,29.92,29.73,20,9,21,0.00
2013-8-28,85.8,78.4,73.6,77.5,74.2,71.1,99,87,69,29.97,29.79,15,4,15,0.00
2013-8-29,86.9,76.1,67.6,73.2,70.6,67.3,99,85,56,30.03,29.89,12,5,12,0.00
2013-8-30,95.5,81.3,72.3,78.8,74.2,70.0,99,81,49,29.91,29.66,17,6,17,0.00
2013-8-31,84.0,73.4,65.5,74.1,69.6,65.1,99,89,68,29.83,29.72,17,5,17,0.01
2013-9-1,86.5,74.0,66.0,75.2,67.7,60.1,99,83,48,29.83,29.65,21,7,21,0.00
2013-9-2,74.3,64.7,56.1,62.4,58.4,53.8,99,82,55,29.98,29.81,14,8,15,0.00
2013-9-3,77.4,64.4,52.0,58.8,55.0,51.4,98,74,42,30.05,29.95,11,3,11,0.00
2013-9-4,84.6,72.7,60.4,67.6,61.1,54.5,83,68,50,30.07,29.98,15,3,15,0.00
2013-9-5,79.7,71.4,63.3,67.6,64.1,55.0,99,79,59,30.17,30.04,15,6,15,0.00
2013-9-6,86.5,72.2,59.0,65.7,59.6,50.2,84,66,46,30.15,29.92,17,7,17,0.00
2013-9-7,89.1,78.0,66.6,71.4,67.3,62.8,93,71,51,29.93,29.78,15,6,15,0.00
2013-9-8,78.8,71.3,66.2,71.6,68.2,64.9,98,90,75,29.98,29.85,25,8,25,0.00
2013-9-9,96.3,79.8,66.4,76.1,69.7,65.1,99,75,44,29.88,29.67,17,7,17,0.00
2013-9-10,95.5,85.1,77.2,67.6,63.9,61.3,64,50,33,29.91,29.78,25,10,25,0.00
2013-9-11,84.7,74.9,68.0,69.6,67.0,63.1,93,77,55,30.01,29.89,16,4,16,0.00
2013-9-12,75.9,67.4,58.5,67.1,56.2,47.8,94,70,42,30.08,29.94,27,9,27,0.00
2013-9-13,69.6,58.2,47.7,49.8,43.3,37.4,92,61,32,30.19,30.07,15,5,15,0.00
2013-9-14,73.8,57.3,48.2,50.0,46.3,40.1,94,70,37,30.12,29.96,15,6,15,0.00
2013-9-15,59.5,56.0,52.9,58.6,55.2,52.3,99,97,92,30.14,29.87,15,6,15,0.24
2013-9-16,68.4,57.1,49.1,55.0,48.7,44.1,99,77,43,30.32,30.13,15,6,15,0.01
2013-9-17,67.3,57.9,47.3,58.1,52.8,46.6,99,84,65,30.26,29.99,17,8,17,0.00
2013-9-18,77.4,67.9,61.3,71.6,64.1,56.1,99,88,79,30.00,29.78,21,10,21,0.32
2013-9-19,89.8,73.9,65.8,74.1,69.5,65.5,99,88,52,29.82,29.62,51,8,51,0.74
2013-9-20,67.5,62.5,54.3,65.7,58.9,52.3,99,89,67,29.83,29.71,21,9,21,0.41
2013-9-21,64.8,56.0,49.1,52.9,50.2,47.8,99,82,60,29.91,29.80,18,7,18,0.00
2013-9-22,70.2,58.2,49.5,51.8,49.0,46.8,91,73,49,30.01,29.89,13,4,13,0.00
2013-9-23,72.1,58.7,47.8,53.2,50.0,47.7,99,75,45,30.04,29.92,17,9,17,0.00
2013-9-24,73.8,60.8,49.3,56.1,51.5,47.8,96,74,44,29.95,29.84,15,7,15,0.00
2013-9-25,75.2,61.9,52.3,57.6,52.1,49.5,98,74,43,29.92,29.83,14,6,14,0.00
2013-9-26,79.5,64.7,52.0,60.1,54.9,50.4,99,74,48,29.99,29.90,16,8,16,0.00
2013-9-27,81.9,68.6,57.0,58.6,52.2,46.4,85,59,32,30.04,29.92,21,8,21,0.00
2013-9-28,78.3,64.6,54.1,67.5,58.2,50.2,99,81,59,29.94,29.77,28,10,28,0.27
2013-9-29,71.2,59.9,48.6,58.1,48.5,42.8,99,71,38,30.02,29.91,9,3,9,0.14
2013-9-30,75.0,62.1,50.5,54.9,49.2,45.1,87,65,37,29.92,29.74,21,8,21,0.00
2013-10-1,81.7,68.6,57.6,64.0,59.7,54.9,99,76,50,29.91,29.78,24,8,24,0.00
2013-10-2,79.3,69.0,59.9,56.5,48.5,39.6,69,50,27,30.03,29.87,16,6,17,0.00
2013-10-3,74.3,67.1,62.1,71.6,65.3,15.4,99,94,13,29.87,29.73,15,6,17,0.39
2013-10-4,70.2,66.9,64.4,69.3,66.4,15.6,99,99,93,29.96,29.78,18,7,18,0.98
2013-10-5,72.9,66.6,51.4,71.1,63.7,43.5,99,91,67,29.83,29.69,21,8,21,0.07
2013-10-6,53.8,46.5,42.1,44.8,41.9,39.0,99,85,61,29.75,29.65,20,5,20,0.05
2013-10-7,71.2,55.8,41.9,51.1,45.8,41.5,99,73,38,30.01,29.69,19,6,19,0.02
2013-10-8,76.1,62.6,50.5,53.6,47.4,43.3,87,60,32,30.09,30.00,21,7,21,0.00
2013-10-9,73.4,62.3,52.9,53.6,47.9,42.4,88,61,36,30.14,30.04,15,6,15,0.00
2013-10-10,73.9,62.4,52.3,56.3,50.6,43.7,81,66,46,30.09,29.94,16,6,16,0.00
2013-10-11,75.7,65.4,55.9,60.8,56.2,53.6,97,74,50,29.95,29.79,31,10,31,0.00
2013-10-12,67.6,61.8,52.3,59.9,48.9,37.0,92,65,38,30.11,29.80,21,8,21,0.00
2013-10-13,63.3,53.0,44.1,43.7,36.3,30.7,77,55,31,30.36,30.10,15,4,15,0.00
2013-10-14,63.7,53.5,43.2,46.2,40.7,32.0,85,63,47,30.32,29.99,22,9,22,0.00
2013-10-15,60.6,53.6,49.3,59.0,49.3,43.3,99,86,66,29.99,29.69,24,12,24,0.01
2013-10-16,50.5,48.2,46.4,48.9,47.0,45.3,99,95,86,29.88,29.74,21,8,21,0.00
2013-10-17,57.6,48.6,44.2,48.2,42.4,36.5,99,81,47,29.86,29.74,16,4,16,0.17
2013-10-18,48.9,45.0,42.1,43.2,38.4,34.3,98,78,64,29.88,29.73,21,7,21,0.00
2013-10-19,53.1,42.4,36.1,42.4,37.2,31.6,99,83,51,29.83,29.69,30,8,30,0.05
2013-10-20,53.8,43.8,33.4,49.1,40.5,32.2,99,89,74,29.73,29.62,20,7,20,0.05
2013-10-21,47.8,39.1,32.5,43.5,30.1,21.7,92,71,43,29.91,29.70,31,10,31,0.01
2013-10-22,43.0,35.3,29.7,32.2,28.2,24.4,88,76,57,29.87,29.82,15,4,16,0.00
2013-10-23,43.3,35.3,28.4,34.7,27.8,23.7,99,76,51,29.94,29.85,17,7,17,0.00
2013-10-24,43.2,35.3,30.9,26.8,24.3,20.8,78,64,49,30.20,29.93,21,8,22,0.00
2013-10-25,52.7,41.2,28.8,32.9,26.3,23.2,84,58,34,30.26,29.89,29,10,29,0.00
2013-10-26,52.2,44.7,38.3,36.1,30.3,25.3,76,57,41,30.00,29.74,29,12,29,0.00
2013-10-27,55.4,44.5,33.6,32.5,29.7,25.3,79,58,34,29.97,29.84,21,7,23,0.00
2013-10-28,47.8,42.1,37.6,38.3,34.3,29.8,88,74,54,30.25,29.92,26,11,27,0.00
2013-10-29,58.8,46.5,36.5,42.8,37.1,30.4,92,71,45,30.25,30.01,17,9,21,0.00
2013-10-30,57.6,52.1,47.7,57.2,50.9,8.8,99,96,14,30.01,29.63,25,9,25,0.09
2013-10-31,61.0,53.1,41.2,60.4,52.7,40.3,99,98,96,29.62,29.26,27,10,28,0.54
2013-11-1,48.2,43.6,40.5,43.9,40.7,37.4,97,90,79,29.67,29.33,21,8,21,0.00
2013-11-2,50.0,40.6,35.2,37.9,34.4,28.9,97,79,58,30.04,29.66,16,7,16,0.00
2013-11-3,52.2,42.4,34.5,37.9,33.5,28.4,88,71,47,30.18,30.02,24,10,24,0.00
2013-11-4,53.4,48.3,42.6,46.2,40.5,35.1,83,74,64,30.07,29.94,26,11,26,0.00
2013-11-5,53.1,50.5,47.8,52.5,48.4,44.8,99,93,83,30.14,29.76,32,9,32,0.24
2013-11-6,55.8,42.8,31.3,55.4,37.2,22.1,99,82,49,30.10,29.64,27,12,27,0.52
2013-11-7,41.7,34.2,30.0,32.4,27.4,22.6,86,76,65,30.14,30.06,17,6,17,0.00
2013-11-8,47.3,38.5,27.3,34.9,28.7,21.9,88,69,45,30.16,29.70,30,11,30,0.00
2013-11-9,55.2,47.3,37.4,40.6,36.2,26.1,78,65,54,30.06,29.69,35,15,35,0.15
2013-11-10,48.2,40.0,31.6,31.6,29.2,25.7,82,66,49,30.28,30.05,21,9,23,0.15
2013-11-11,44.6,33.0,19.4,34.2,26.3,11.3,99,77,61,30.44,29.97,25,9,25,0.01
2013-11-12,29.8,21.5,15.6,15.6,10.3,7.0,70,62,46,30.64,30.42,17,8,17,0.00
2013-11-13,42.6,30.4,17.2,16.7,12.4,6.8,67,48,29,30.42,29.97,24,11,30,0.01
2013-11-14,48.6,40.1,32.5,28.8,23.9,15.8,66,52,45,29.97,29.79,23,10,23,0.00
2013-11-15,54.9,44.6,35.1,36.0,31.1,25.2,81,60,43,29.86,29.74,32,9,32,0.00
2013-11-16,57.7,49.4,38.7,56.1,48.1,35.1,99,95,81,29.74,29.36,30,15,30,0.25
2013-11-17,57.4,49.1,39.4,56.5,47.0,34.2,99,92,81,29.68,29.12,33,12,33,1.68
2013-11-18,41.9,34.9,29.3,34.7,25.9,21.0,85,70,52,30.14,29.68,30,13,33,0.02
2013-11-19,41.7,32.7,25.0,27.9,23.7,19.0,83,70,51,30.23,30.07,23,9,23,0.00
2013-11-20,37.4,35.1,32.7,36.3,29.8,25.7,97,82,67,30.09,29.94,25,14,26,0.09
2013-11-21,41.0,38.7,37.0,40.1,37.9,36.1,99,97,92,30.17,29.96,15,6,16,0.09
2013-11-22,37.4,30.1,21.2,36.1,23.0,10.0,98,76,53,30.43,30.16,26,10,26,0.02
2013-11-23,21.4,16.9,9.9,13.1,3.0,-3.5,72,54,38,30.61,30.31,30,12,30,0.04
2013-11-24,27.3,17.6,7.2,5.2,0.0,-5.3,70,48,24,30.83,30.13,21,8,21,0.00
2013-11-25,30.2,26.1,19.8,25.2,19.1,5.0,87,75,48,30.14,29.93,24,12,25,0.00
2013-11-26,32.0,25.1,11.8,25.5,12.5,-3.3,83,60,34,30.08,29.90,26,11,26,0.00
2013-11-27,25.9,16.5,7.3,9.3,1.9,-6.9,62,52,42,30.43,30.04,20,8,20,0.00
2013-11-28,29.1,23.5,18.3,14.5,10.3,4.8,66,57,47,30.33,29.96,17,6,17,0.00
2013-11-29,32.0,26.2,18.9,19.0,13.7,7.7,66,59,49,30.46,30.18,20,8,20,0.00
2013-11-30,47.7,36.2,27.5,31.8,26.0,18.0,78,67,53,30.18,29.93,20,8,20,0.00
2013-12-1,41.7,34.8,27.9,29.5,26.3,22.8,86,71,59,30.03,29.84,14,5,59,0.00
2013-12-2,38.8,34.1,30.2,32.9,29.2,23.7,94,82,69,29.84,29.56,23,11,23,0.04
2013-12-3,41.5,38.2,34.5,41.4,37.7,32.9,99,98,94,29.60,29.51,15,8,15,0.02
2013-12-4,49.1,40.8,27.5,48.9,40.4,25.5,99,98,92,29.62,29.36,34,10,34,0.04
2013-12-5,27.5,18.4,12.7,25.5,8.3,2.3,92,65,52,30.14,29.62,34,13,34,0.01
2013-12-6,16.5,10.0,6.6,2.5,-2.9,-5.8,65,55,44,30.39,30.11,19,10,19,0.00
2013-12-7,15.6,7.4,-0.6,-3.3,-7.9,-12.1,65,50,30,30.83,30.39,31,6,31,0.00
2013-12-8,19.0,15.3,9.1,14.4,5.2,-7.1,82,65,46,30.42,29.80,16,7,16,0.00
2013-12-9,18.1,7.8,-6.5,13.6,-2.6,-17.9,82,63,42,30.35,29.80,26,8,27,0.00
2013-12-10,18.1,9.2,-7.1,7.0,-2.9,-17.9,76,58,42,30.29,29.76,37,11,37,0.06
2013-12-11,14.4,6.8,-5.8,8.4,-6.6,-19.7,77,55,31,30.69,30.07,23,8,23,0.00
2013-12-12,19.4,8.5,-5.6,5.9,-4.3,-17.5,67,55,45,30.63,30.00,24,7,24,0.00
2013-12-13,26.1,19.8,12.9,17.4,11.2,3.7,80,69,57,30.01,29.94,26,10,26,0.00
2013-12-14,24.8,21.2,16.0,17.8,14.8,6.4,84,76,66,29.96,29.83,23,10,23,0.00
2013-12-15,15.8,9.3,4.6,6.4,-3.9,-6.7,67,55,46,29.94,29.83,27,9,27,0.00
2013-12-16,17.4,10.9,6.4,12.4,0.9,-8.3,81,64,48,29.94,29.83,14,5,15,0.00
2013-12-17,36.9,24.6,16.7,23.7,14.6,7.2,86,67,42,29.97,29.79,31,12,31,0.19
2013-12-18,36.3,26.1,12.9,26.2,14.1,5.4,77,61,35,29.97,29.65,37,9,37,0.04
2013-12-19,36.1,32.1,27.3,30.2,25.7,19.2,95,78,64,29.79,29.65,23,6,23,0.00
2013-12-20,31.6,23.9,21.7,30.2,20.8,18.7,94,88,85,29.72,29.64,12,0,12,0.21
2013-12-21,27.5,24.9,23.0,24.6,22.0,19.9,91,89,88,29.73,29.54,9,0,9,0.14
2013-12-22,26.6,23.8,16.7,24.1,20.2,11.7,91,86,79,30.02,29.55,16,4,16,0.00
2013-12-23,16.7,1.0,-7.8,11.7,-9.0,-19.7,81,62,51,30.61,30.02,18,9,19,0.00
2013-12-24,10.6,-1.0,-11.2,4.8,-12.1,-23.3,77,59,53,30.66,30.06,17,8,17,0.00
2013-12-25,23.0,18.4,10.6,19.2,13.3,4.8,86,80,65,30.06,29.96,20,9,20,0.00
2013-12-26,32.4,23.1,12.2,23.0,15.9,4.1,80,74,64,30.06,29.98,17,5,60,0.00
2013-12-27,40.1,30.7,20.7,28.6,22.9,16.2,87,73,63,30.12,29.92,27,8,27,0.00
2013-12-28,45.5,37.9,27.5,31.1,28.3,21.7,88,69,55,29.94,29.64,24,9,24,0.00
2013-12-29,39.6,18.2,-4.7,30.4,8.8,-20.2,94,67,45,30.39,29.62,34,15,34,0.00
2013-12-30,4.8,-2.2,-10.7,-6.5,-16.6,-25.2,66,50,32,30.42,30.01,17,4,17,0.00
2013-12-31,7.5,2.8,-3.5,-2.4,-6.6,-13.2,67,64,61,30.45,30.09,14,4,14,0.00
2014-1-1,10.6,6.1,1.0,1.8,-4.2,-10.5,67,62,54,30.43,30.08,19,9,19,0.00
2014-1-2,10.9,6.7,-0.4,-1.8,-7.1,-15.9,56,52,46,30.57,30.06,19,9,19,0.00